Weather History for Boone, NC

Change the Weather History Date:

Sunday, March 9, 2014

  Actual Average (KGEV) Record (KGEV)
Temperature  
Mean Temperature 47 °F -  
Max Temperature 54 °F 54 °F 75 °F (1974)
Min Temperature 41 °F 29 °F 12 °F (1966)
Degree Days  
Heating Degree Days 18    
Moisture  
Dew Point 27 °F    
Average Humidity 50    
Maximum Humidity 76    
Minimum Humidity 28    
Precipitation  
Precipitation 0.00 in - - ()
Sea Level Pressure  
Sea Level Pressure 30.05 in    
Wind  
Wind Speed 17 mph (WNW)    
Max Wind Speed 29 mph    
Max Gust Speed 39 mph    
Visibility 10 miles    
Events      
Averages and records for this station are not official NWS values.
T = Trace of Precipitation, MM = Missing Value Source: NWS Daily Summary

Daily Weather History Graph

Daily Weather History Graph

Search for Another Location

Airport:

Trip Planner

Search our weather history database for the weather conditions in past years. The results will help you decide how hot, cold, wet, or windy it might be!

Date:

Astronomy

Mar. 09, 2014 Rise Set
Actual Time 7:45 AM EDT 7:28 PM EDT
Civil Twilight 7:20 AM EDT 7:54 PM EDT
Nautical Twilight 6:50 AM EDT 8:24 PM EDT
Astronomical Twilight 6:20 AM EDT 8:54 PM EDT
Moon 1:27 PM EDT (3/9) 3:03 AM EDT (3/9)
Length of Visible Light 12h 34m
Length of Day
11h 42m
First Quarter, 61% of the Moon is Illuminated
Mar 9
First Quarter
Mar 16
Full
Mar 23
Last Quarter
Mar 30
New
Apr 7
First Quarter

Hourly Weather History & Observations

Time (EDT) Temp. Windchill Dew Point Humidity Pressure Visibility Wind Dir Wind Speed Gust Speed Precip Events Conditions
12:15 AM 48.0 °F - 28.9 °F 48% 30.02 in 10.0 mi WNW 20.7 mph 28.8 mph N/A   Clear
12:35 AM 47.5 °F - 28.8 °F 48% 30.02 in 10.0 mi WNW 19.6 mph 27.6 mph N/A   Clear
12:55 AM 46.9 °F - 28.4 °F 49% 30.02 in 10.0 mi WNW 17.3 mph 28.8 mph N/A   Clear
1:15 AM 46.4 °F 39.0 °F 28.4 °F 50% 30.02 in 10.0 mi WNW 19.6 mph 25.3 mph N/A   Clear
1:35 AM 46.4 °F 39.5 °F 28.4 °F 50% 30.02 in 10.0 mi WNW 17.3 mph 29.9 mph N/A   Clear
1:55 AM 45.7 °F 37.8 °F 28.6 °F 51% 30.02 in 10.0 mi WNW 20.7 mph 28.8 mph N/A   Clear
3:15 AM 45.5 °F 37.3 °F 29.3 °F 53% 30.01 in 10.0 mi WNW 21.9 mph 29.9 mph N/A   Clear
3:35 AM 44.6 °F 38.1 °F 30.7 °F 58% 30.00 in 10.0 mi WNW 13.8 mph 32.2 mph N/A   Clear
3:55 AM 44.4 °F 37.2 °F 31.3 °F 60% 30.01 in 10.0 mi West 16.1 mph 27.6 mph N/A   Clear
4:15 AM 44.1 °F 36.8 °F 32.0 °F 63% 30.01 in 10.0 mi WNW 16.1 mph 28.8 mph N/A   Clear
4:35 AM 43.9 °F 36.5 °F 32.0 °F 63% 30.00 in 10.0 mi WNW 16.1 mph 28.8 mph N/A   Clear
4:55 AM 44.1 °F 35.9 °F 32.0 °F 63% 30.00 in 10.0 mi WNW 19.6 mph 28.8 mph N/A   Clear
5:15 AM 43.7 °F 36.0 °F 32.0 °F 63% 30.00 in 10.0 mi WNW 17.3 mph 27.6 mph N/A   Clear
5:35 AM 43.7 °F 35.4 °F 32.0 °F 63% 30.01 in 10.0 mi WNW 19.6 mph 24.2 mph N/A   Scattered Clouds
5:55 AM 43.3 °F 34.7 °F 32.2 °F 65% 30.01 in 10.0 mi WNW 20.7 mph 28.8 mph N/A   Clear
6:15 AM 43.2 °F 34.2 °F 32.5 °F 66% 30.02 in 10.0 mi WNW 21.9 mph 31.1 mph N/A   Clear
6:35 AM 42.8 °F 34.0 °F 32.9 °F 68% 30.03 in 10.0 mi WNW 20.7 mph 29.9 mph N/A   Clear
6:55 AM 42.4 °F 32.8 °F 33.3 °F 70% 30.03 in 10.0 mi WNW 24.2 mph 33.4 mph N/A   Clear
7:15 AM 42.1 °F 32.6 °F 33.6 °F 72% 30.04 in 10.0 mi WNW 23.0 mph 33.4 mph N/A   Clear
7:35 AM 41.9 °F 31.9 °F 33.8 °F 73% 30.04 in 10.0 mi WNW 25.3 mph 35.7 mph N/A   Clear
7:55 AM 41.9 °F 32.1 °F 34.0 °F 73% 30.04 in 10.0 mi WNW 24.2 mph 34.5 mph N/A   Clear
8:15 AM 41.7 °F 32.3 °F 34.2 °F 75% 30.04 in 10.0 mi West 21.9 mph 29.9 mph N/A   Clear
8:35 AM 41.7 °F 31.9 °F 34.5 °F 76% 30.05 in 10.0 mi WNW 24.2 mph 33.4 mph N/A   Clear
8:55 AM 41.9 °F 31.3 °F 34.7 °F 76% 30.05 in 10.0 mi WNW 28.8 mph 38.0 mph N/A   Clear
9:15 AM 41.9 °F 31.3 °F 34.3 °F 75% 30.05 in 10.0 mi WNW 28.8 mph 39.1 mph N/A   Clear
9:35 AM 42.1 °F 32.1 °F 34.3 °F 74% 30.05 in 10.0 mi WNW 25.3 mph 39.1 mph N/A   Clear
9:55 AM 43.0 °F 32.9 °F 34.0 °F 71% 30.05 in 10.0 mi WNW 27.6 mph 39.1 mph N/A   Clear
10:15 AM 43.3 °F 34.7 °F 33.8 °F 69% 30.06 in 10.0 mi WNW 20.7 mph 36.8 mph N/A   Clear
10:35 AM 43.2 °F 34.5 °F 33.8 °F 70% 30.07 in 10.0 mi WNW 20.7 mph 36.8 mph N/A   Clear
10:55 AM 43.9 °F 36.5 °F 33.8 °F 68% 30.09 in 10.0 mi WNW 16.1 mph 31.1 mph N/A   Clear
11:15 AM 44.2 °F 36.7 °F 33.4 °F 66% 30.09 in 10.0 mi WNW 17.3 mph 32.2 mph N/A   Clear
11:35 AM 43.9 °F 40.5 °F 33.1 °F 66% 30.10 in 10.0 mi NNW 5.8 mph 18.4 mph N/A   Clear
11:55 AM 44.8 °F 39.9 °F 33.4 °F 64% 30.10 in 10.0 mi WNW 9.2 mph - N/A   Clear
12:15 PM 45.5 °F 40.3 °F 33.1 °F 62% 30.10 in 10.0 mi NW 10.4 mph - N/A   Clear
12:35 PM 46.6 °F - 32.2 °F 57% 30.10 in 10.0 mi NW 13.8 mph 29.9 mph N/A   Clear
12:55 PM 48.2 °F - 31.1 °F 52% 30.10 in 10.0 mi NW 16.1 mph 25.3 mph N/A   Clear
1:15 PM 49.1 °F - 29.7 °F 47% 30.10 in 10.0 mi WNW 17.3 mph 25.3 mph N/A   Clear
1:35 PM 49.6 °F - 27.9 °F 43% 30.10 in 10.0 mi NW 17.3 mph 27.6 mph N/A   Clear
1:55 PM 49.8 °F - 28.4 °F 44% 30.10 in 10.0 mi WNW 16.1 mph 23.0 mph N/A   Clear
2:15 PM 50.7 °F - 27.3 °F 40% 30.09 in 10.0 mi NW 16.1 mph 27.6 mph N/A   Clear
2:35 PM 51.4 °F - 24.8 °F 35% 30.09 in 10.0 mi NW 19.6 mph 26.5 mph N/A   Clear
2:55 PM 51.8 °F - 23.9 °F 34% 30.08 in 10.0 mi NW 18.4 mph 25.3 mph N/A   Clear
3:15 PM 52.9 °F - 22.6 °F 31% 30.07 in 10.0 mi NW 11.5 mph 25.3 mph N/A   Clear
3:35 PM 53.1 °F - 20.7 °F 28% 30.07 in 10.0 mi NW 21.9 mph 29.9 mph N/A   Clear
3:55 PM 53.4 °F - 22.3 °F 30% 30.07 in 10.0 mi NW 18.4 mph 27.6 mph N/A   Clear
4:10 PM 52.9 °F - 21.0 °F 29% 30.07 in 10.0 mi NW 16.1 mph 24.2 mph N/A   Clear
4:35 PM 53.6 °F - 21.2 °F 28% 30.07 in 10.0 mi NW 15.0 mph 26.5 mph N/A   Clear
4:55 PM 53.6 °F - 22.1 °F 29% 30.08 in 10.0 mi NNW 13.8 mph 25.3 mph N/A   Clear
5:15 PM 53.6 °F - 22.6 °F 30% 30.07 in 10.0 mi WNW 16.1 mph 23.0 mph N/A   Clear
5:35 PM 52.9 °F - 22.5 °F 31% 30.07 in 10.0 mi West 13.8 mph 20.7 mph N/A   Clear
5:55 PM 52.9 °F - 22.1 °F 30% 30.06 in 10.0 mi NW 13.8 mph 19.6 mph N/A   Clear
6:15 PM 52.0 °F - 22.3 °F 31% 30.06 in 10.0 mi NW 12.7 mph 20.7 mph N/A   Clear
6:35 PM 52.0 °F - 22.1 °F 31% 30.05 in 10.0 mi WNW 13.8 mph 20.7 mph N/A   Clear
6:55 PM 51.4 °F - 22.1 °F 32% 30.06 in 10.0 mi WNW 6.9 mph 17.3 mph N/A   Clear
7:15 PM 50.2 °F - 20.8 °F 32% 30.06 in 10.0 mi WNW 8.1 mph 17.3 mph N/A   Clear
7:35 PM 49.1 °F - 20.5 °F 32% 30.06 in 10.0 mi WNW 9.2 mph - N/A   Clear
7:55 PM 48.2 °F - 21.0 °F 34% 30.07 in 10.0 mi West 5.8 mph - N/A   Clear
8:15 PM 47.3 °F - 19.8 °F 34% 30.08 in 10.0 mi WNW 6.9 mph - N/A   Clear
8:35 PM 45.5 °F 43.2 °F 20.5 °F 37% 30.08 in 10.0 mi WNW 4.6 mph - N/A   Clear
8:50 PM 44.8 °F 41.6 °F 21.0 °F 39% 30.08 in 10.0 mi WNW 5.8 mph - N/A   Clear
9:15 PM 44.8 °F 40.4 °F 21.6 °F 40% 30.07 in 10.0 mi WNW 8.1 mph - N/A   Clear
9:35 PM 44.4 °F 39.0 °F 21.4 °F 40% 30.07 in 10.0 mi WNW 10.4 mph - N/A   Clear
9:55 PM 44.6 °F 39.7 °F 20.7 °F 39% 30.06 in 10.0 mi NW 9.2 mph - N/A   Clear
10:15 PM 44.8 °F 38.7 °F 20.1 °F 37% 30.07 in 10.0 mi WNW 12.7 mph 18.4 mph N/A   Clear
10:35 PM 44.2 °F 38.0 °F 20.3 °F 39% 30.07 in 10.0 mi WNW 12.7 mph 21.9 mph N/A   Clear
10:55 PM 44.1 °F 36.5 °F 20.3 °F 39% 30.06 in 10.0 mi WNW 17.3 mph 21.9 mph N/A   Clear
11:15 PM 43.7 °F 38.1 °F 20.1 °F 39% 30.07 in 10.0 mi NW 10.4 mph 18.4 mph N/A   Clear
11:35 PM 43.5 °F 37.9 °F 19.8 °F 39% 30.06 in 10.0 mi NNW 10.4 mph - N/A   Clear
11:55 PM 43.7 °F 39.7 °F 19.4 °F 38% 30.05 in 10.0 mi NW 6.9 mph - N/A   Clear
12:15 AM 42.8 °F 37.5 °F 19.8 °F 40% 30.04 in 10.0 mi WNW 9.2 mph - N/A   Clear
12:35 AM 43.0 °F 41.3 °F 19.4 °F 39% 30.03 in 10.0 mi West 3.5 mph - N/A   Clear
12:55 AM 42.1 °F 40.2 °F 19.9 °F 41% 30.03 in 10.0 mi NW 3.5 mph - N/A   Clear